Location: Rounton
(54.4000°N, 1.3500°W)
Time: 02:21:58
(UTC+00:00)

Envisat - Pass Details

Date: 30 October 2021
Orbit: 764 x 766 km, 98.2° (Epoch: 28 November)

Event Time Altitude Azimuth Distance (km) Brightness Sun altitude
Rises 06:31:28 0° 15° (NNE) 3,247 6.4 -13.8°
Reaches altitude 10° 06:33:47 10° 15° (NNE) 2,316 5.6 -13.4°
Maximum altitude 06:38:54 89° 286° (WNW) 773 3.0 -12.7°
Drops below altitude 10° 06:43:59 10° 198° (SSW) 2,298 5.4 -12.0°
Sets 06:46:17 0° 198° (SSW) 3,220 6.1 -11.6°
